Wind_Speed
14 13 13 12 14 14 14 14 13 12 11 10 10 9 9 8 7 6 5 5 5 4 4 4 3 2 1 1 1 1 1 1 1 3 4 4 6 8 9 8 9 9 9 9 10 9 9 10 10
14 14 15 15 15 16 16 15 14 12 12 12 11 10 9 8 7 7 6 5 5 4 4 4 3 2 1 0 1 2 2 2 2 2 2 4 5 6 8 9 9 10 10 10 10 10 10 10 10
16 16 16 16 16 17 17 16 15 13 12 12 12 11 10 8 7 7 6 5 6 5 4 3 2 2 2 0 1 2 2 3 3 3 2 4 6 7 8 9 10 10 10 10 11 11 10 10 10
17 18 17 18 18 18 17 16 15 14 13 13 13 12 11 10 8 7 7 6 6 5 4 3 2 1 1 1 1 1 2 3 3 4 3 3 5 7 8 10 10 10 10 11 11 11 10 10 9
16 17 18 17 18 19 18 17 16 15 14 14 13 13 13 11 9 8 8 7 6 5 4 3 2 2 1 1 1 1 2 2 3 3 3 3 5 7 8 9 10 10 10 11 11 10 10 9 8
15 16 17 17 16 17 18 19 18 16 15 15 14 14 13 12 10 9 8 7 5 5 4 4 3 2 1 0 1 2 2 2 3 3 3 4 5 7 9 10 11 10 11 11 11 10 10 8 8
14 16 17 16 15 17 18 18 17 17 16 15 15 14 13 12 11 11 10 8 7 6 5 5 4 2 2 1 0 2 2 2 3 4 4 4 5 7 8 9 11 11 11 11 11 10 9 8 8
15 17 17 17 16 17 18 18 18 17 17 16 15 15 14 13 13 12 11 10 8 7 6 6 5 4 3 2 2 1 2 2 3 4 4 4 5 6 7 9 11 12 11 11 10 10 9 8 8
14 16 16 16 16 17 18 18 18 18 17 16 16 16 14 14 13 13 11 11 10 8 7 6 6 6 5 4 3 2 3 4 4 4 4 5 5 5 6 8 10 11 11 10 10 10 9 9 9
13 14 15 16 16 16 17 17 17 16 16 16 16 16 15 14 13 13 12 12 11 10 8 7 7 6 5 5 4 4 4 5 5 5 5 5 6 6 7 8 9 10 11 11 10 9 9 9 9
11 11 13 14 15 16 17 17 17 17 16 17 16 16 15 15 14 14 12 12 11 10 9 8 7 6 5 5 5 5 6 6 6 6 6 6 6 7 8 8 8 9 10 10 10 9 9 9 9
8 9 10 12 14 15 16 17 17 17 17 17 16 15 15 15 14 14 13 12 11 10 9 8 8 7 6 6 6 6 7 6 6 6 6 6 6 8 8 7 7 8 8 9 8 8 7 7 7
5 7 8 10 12 14 15 16 18 17 17 17 17 16 15 15 14 13 13 12 12 11 10 9 8 8 7 7 7 6 6 6 6 6 6 6 7 7 7 7 7 6 7 8 8 8 7 6 6
4 6 8 9 10 13 14 15 16 16 16 16 16 16 15 15 15 13 12 12 12 11 10 10 9 9 8 8 8 8 7 7 6 6 6 7 7 6 7 6 6 6 7 7 7 7 6 7 7
2 4 6 7 9 10 11 13 14 15 16 16 16 15 15 15 15 13 12 11 11 11 10 10 10 10 10 9 9 8 8 7 7 7 6 6 6 6 7 7 6 6 7 7 6 6 6 5 6
2 2 3 5 8 9 11 12 13 13 16 17 16 15 15 14 14 13 12 11 11 11 10 10 11 10 11 10 9 9 8 8 7 6 6 7 6 5 6 6 6 6 5 6 6 5 5 5 5
3 2 2 3 5 8 10 12 11 12 14 15 15 15 14 14 14 14 13 12 11 11 11 11 11 10 10 11 10 9 9 8 7 7 7 6 6 5 5 5 5 5 5 5 4 4 4 5 5
4 1 1 2 5 7 9 9 10 11 12 13 12 12 13 13 14 13 13 13 11 10 10 10 11 11 10 10 10 9 8 8 7 7 7 6 6 6 5 4 4 4 4 4 4 3 3 3 4
5 3 3 3 2 5 7 8 9 10 10 12 11 10 11 12 13 13 12 11 11 10 9 9 10 10 10 9 9 9 8 8 7 6 6 6 5 5 4 3 2 3 3 3 3 3 3 4 4
7 5 5 4 3 4 6 7 8 9 9 10 11 10 9 10 11 11 11 11 10 9 9 8 8 9 9 9 9 8 8 7 7 6 6 6 5 4 4 3 2 1 2 2 2 3 3 3 4
9 8 6 7 7 7 7 7 7 8 8 8 8 9 9 8 9 9 9 9 9 8 8 8 7 7 7 7 7 7 7 7 6 5 5 5 4 4 4 3 3 2 1 1 2 2 3 3 3
9 8 9 10 10 9 8 10 9 7 7 7 8 8 8 9 8 8 8 8 8 7 7 7 7 7 7 7 7 7 6 5 5 4 4 3 3 3 3 3 3 2 1 1 1 2 3 3 3
11 10 11 13 14 13 11 10 9 8 6 6 7 8 9 9 8 7 6 6 6 6 6 6 6 6 6 5 6 6 6 5 4 4 3 2 2 2 2 3 2 2 1 1 2 2 2 3 3
12 12 13 14 14 12 10 10 10 9 7 6 7 8 8 8 7 6 5 4 4 4 4 4 4 4 3 3 4 4 4 4 4 3 3 2 2 2 2 2 2 2 2 2 2 3 2 3 3
16 14 14 15 15 14 11 11 11 11 10 7 6 7 7 6 7 6 6 5 4 3 2 2 2 2 2 2 2 3 3 3 3 3 3 3 3 3 3 3 3 3 3 4 4 3 3 4 4
18 17 16 16 15 14 14 13 11 12 11 10 8 8 7 6 8 7 6 6 6 4 3 2 1 1 1 1 1 2 2 2 2 2 3 3 3 4 5 5 4 5 5 5 5 5 5 5 5
19 18 17 16 16 17 15 14 13 11 11 11 10 9 8 8 8 8 7 7 7 6 5 4 3 2 2 3 3 3 4 4 4 4 4 4 4 5 6 6 6 6 6 6 7 7 7 7 7
19 18 18 19 19 19 18 16 14 12 12 12 13 11 9 9 9 9 8 9 9 9 9 8 7 5 5 5 5 5 6 6 6 6 6 6 6 6 7 7 8 8 8 8 9 9 9 10 9
20 20 20 21 21 21 20 18 16 14 14 14 14 12 10 10 11 11 10 10 9 9 9 9 8 6 6 7 8 8 8 8 8 8 8 8 8 8 9 9 10 10 10 10 10 11 11 11 11
22 22 22 23 24 23 22 20 19 17 15 16 16 16 14 14 14 12 11 11 11 10 10 9 10 9 9 9 10 10 10 10 10 10 9 9 10 10 11 11 11 11 12 12 12 12 13 13 13
Wind_Direction
77 73 70 66 59 55 51 48 46 45 48 47 40 32 29 30 28 28 21 25 25 17 11 10 2 356 346 279 238 225 213 233 218 197 191 194 188 190 184 181 179 177 178 180 180 175 176 173 175
73 71 68 62 58 55 53 49 47 44 42 42 38 33 30 27 25 24 22 27 22 15 10 7 355 350 359 183 198 212 215 215 212 189 173 194 191 193 191 183 181 179 179 181 179 174 174 173 175
70 67 63 58 58 53 51 49 46 42 38 36 33 31 29 25 21 24 27 24 16 9 7 8 11 16 24 8 190 195 196 206 204 205 191 198 202 192 186 182 182 182 182 182 180 177 177 175 173
71 67 62 56 54 51 47 47 47 43 39 36 33 29 28 28 27 26 25 21 22 15 17 26 44 55 74 109 143 178 197 203 208 207 204 202 198 187 182 179 180 182 182 180 180 181 182 179 179
70 66 61 55 52 49 46 48 47 44 41 38 34 29 26 28 31 28 23 21 24 29 27 27 44 58 79 119 135 160 162 185 196 204 188 177 183 186 184 181 180 179 179 180 179 181 186 184 184
66 61 58 53 50 48 48 48 46 42 39 37 34 30 27 32 36 32 28 27 28 29 33 44 46 45 38 77 177 171 182 187 183 188 184 181 181 183 183 184 176 177 180 183 182 184 188 188 185
61 57 54 51 51 49 49 48 45 40 37 34 34 33 30 35 37 33 32 33 36 41 51 53 58 41 29 34 154 198 199 187 180 175 177 170 170 168 177 181 180 179 179 182 183 184 187 188 189
58 54 52 48 47 45 44 45 43 40 37 33 35 35 33 35 34 33 33 35 36 36 49 56 60 52 60 71 73 146 190 179 170 168 169 172 174 171 175 178 178 179 181 184 183 184 186 189 189
60 55 49 46 42 43 39 38 38 37 35 35 37 37 36 36 34 35 36 37 39 42 50 59 60 56 66 76 81 108 140 153 152 158 162 169 180 172 167 168 173 179 180 182 184 186 188 188 190
60 50 46 46 43 42 39 35 35 37 35 35 35 36 37 38 37 38 38 39 41 46 51 58 59 58 62 73 84 98 115 135 150 154 152 156 162 165 166 162 169 173 176 178 180 178 181 186 187
65 54 52 48 44 43 41 38 34 36 35 34 34 34 36 40 40 41 41 41 43 44 47 55 59 61 62 71 87 103 113 125 136 142 141 144 152 152 155 156 166 173 175 175 176 178 184 188 192
68 55 55 50 46 44 40 38 36 34 34 34 36 35 36 39 41 42 43 45 47 47 49 52 51 56 63 75 89 102 114 115 120 131 135 139 145 147 146 151 155 165 171 174 176 181 185 192 198
75 66 59 51 45 38 37 35 33 32 32 34 37 36 36 39 42 43 45 48 47 48 50 55 57 57 64 71 82 94 103 104 110 125 133 141 145 147 145 150 154 155 159 173 180 182 186 193 194
73 59 56 45 38 35 35 36 32 30 29 32 35 37 35 36 41 45 46 48 49 49 49 53 59 59 65 72 83 88 92 99 105 115 126 134 138 140 143 146 147 145 151 159 168 175 182 193 195
106 64 42 31 18 22 28 32 33 32 29 30 33 34 34 35 38 42 45 48 49 50 51 57 63 64 68 78 78 85 92 102 109 111 116 122 124 138 148 145 143 144 154 164 171 175 185 197 202
149 92 43 22 10 5 14 19 32 30 26 25 28 31 32 33 34 38 41 45 49 54 58 61 62 63 66 72 74 78 81 95 103 105 113 116 118 130 144 144 144 146 156 170 183 184 187 197 207
182 149 88 9 359 350 1 7 17 24 22 23 23 28 30 32 34 34 38 46 51 55 60 64 60 58 62 70 75 79 79 86 91 94 107 106 108 121 135 135 136 146 152 161 171 174 186 200 211
184 193 286 316 327 336 345 360 11 14 17 18 22 25 28 31 34 34 37 44 49 53 59 64 63 61 62 66 72 77 79 85 93 102 105 102 105 110 112 116 124 134 143 157 166 173 185 208 219
187 222 271 281 300 327 343 355 6 8 9 11 13 21 27 27 28 33 37 38 45 52 58 61 62 61 62 63 67 71 76 82 89 95 96 96 96 92 97 104 116 132 144 168 180 192 209 224 232
206 222 250 246 254 295 319 334 345 359 0 5 359 7 23 26 22 24 30 35 39 46 50 54 56 57 58 60 63 65 68 76 83 86 90 94 91 89 91 90 94 130 154 179 198 213 222 233 246
220 223 245 257 254 267 283 305 318 336 344 358 358 1 6 12 19 20 23 28 31 37 41 44 48 52 53 55 61 63 63 69 78 79 84 88 84 80 74 70 72 92 117 208 236 240 249 266 269
226 232 244 249 259 261 264 283 297 307 328 344 346 355 357 356 5 11 10 19 26 28 33 42 50 52 54 57 59 61 64 62 65 69 68 71 69 67 69 58 52 55 66 18 309 292 290 289 287
232 238 249 254 255 256 257 269 277 289 311 325 334 344 346 348 354 359 357 10 21 26 33 40 46 48 52 56 59 62 61 67 65 55 59 58 45 45 41 34 32 33 26 350 322 318 315 310 304
230 238 247 258 256 251 255 266 273 284 290 304 322 332 332 340 344 345 341 358 21 30 32 30 28 38 50 50 48 53 58 64 57 44 42 34 19 11 4 5 353 333 318 310 315 314 310 305 302
232 236 243 252 253 252 254 262 271 279 284 289 307 324 324 329 331 330 330 340 358 8 8 7 12 21 36 44 40 38 42 44 40 34 28 17 6 359 352 336 321 317 312 308 304 303 299 298 299
234 237 241 252 252 252 252 259 270 273 275 282 296 308 312 315 319 317 311 318 315 315 308 309 336 357 1 353 340 332 336 346 345 344 353 357 351 343 338 330 315 305 304 298 291 294 295 299 296
235 239 246 256 256 258 258 260 264 270 271 280 291 299 305 306 305 306 308 308 302 296 288 274 271 269 274 280 290 299 305 309 308 307 314 314 318 323 325 329 318 307 299 298 288 291 290 293 293
235 239 243 248 253 255 258 261 263 265 275 283 292 290 291 292 289 289 294 298 300 299 295 290 285 276 278 278 280 286 295 297 294 293 294 296 300 304 307 308 305 300 295 293 287 284 286 287 287
233 235 239 243 248 254 256 253 258 264 271 279 284 285 282 278 277 279 283 290 298 296 294 291 286 285 278 276 278 280 285 288 286 287 288 287 289 295 298 300 297 294 293 288 285 287 288 287 286
234 235 240 243 247 252 254 255 254 258 265 271 278 282 282 282 278 277 279 285 285 287 289 291 291 284 282 279 283 281 282 280 278 279 283 283 284 288 292 294 293 290 287 286 286 285 284 285 286
Height
5898 5898 5897 5898 5897 5896 5894 5894 5893 5892 5892 5891 5889 5888 5888 5887 5887 5888 5885 5883 5882 5881 5881 5880 5880 5880 5879 5879 5879 5879 5879 5880 5880 5880 5880 5881 5881 5882 5882 5884 5885 5886 5887 5888 5890 5892 5893 5894 5896
5901 5900 5900 5899 5897 5897 5896 5895 5894 5894 5893 5891 5890 5889 5888 5887 5886 5885 5884 5883 5882 5881 5880 5880 5880 5879 5879 5879 5879 5879 5879 5880 5880 5880 5880 5880 5881 5881 5882 5883 5884 5885 5887 5888 5890 5891 5893 5894 5896
5902 5902 5902 5900 5899 5898 5898 5897 5896 5895 5893 5893 5892 5890 5889 5888 5886 5885 5884 5883 5882 5881 5880 5880 5879 5879 5879 5879 5878 5879 5879 5879 5879 5880 5879 5880 5880 5880 5881 5882 5883 5885 5886 5888 5889 5891 5893 5895 5896
5904 5904 5904 5902 5900 5900 5899 5898 5897 5896 5895 5894 5892 5891 5889 5888 5886 5885 5883 5882 5881 5880 5880 5879 5879 5879 5879 5878 5878 5878 5879 5879 5879 5879 5879 5879 5879 5880 5880 5881 5883 5884 5886 5888 5890 5892 5894 5895 5896
5906 5906 5904 5903 5902 5901 5900 5899 5898 5897 5896 5894 5893 5891 5890 5888 5886 5885 5883 5882 5881 5880 5880 5879 5879 5878 5878 5878 5878 5878 5878 5878 5878 5878 5878 5878 5878 5879 5880 5881 5882 5884 5886 5888 5890 5892 5894 5895 5896
5908 5907 5906 5905 5904 5903 5902 5900 5900 5899 5898 5896 5894 5892 5890 5889 5887 5885 5884 5883 5881 5880 5880 5879 5879 5878 5878 5878 5877 5877 5877 5877 5877 5877 5878 5878 5877 5878 5879 5880 5882 5884 5886 5888 5890 5892 5893 5895 5896
5910 5908 5907 5906 5906 5905 5904 5903 5902 5900 5899 5897 5895 5893 5891 5889 5887 5886 5884 5883 5881 5881 5880 5879 5878 5878 5877 5877 5877 5877 5876 5877 5877 5877 5877 5877 5877 5877 5879 5880 5882 5884 5886 5888 5890 5892 5893 5895 5896
5911 5910 5909 5909 5908 5907 5906 5904 5903 5902 5900 5898 5896 5894 5892 5890 5888 5886 5884 5884 5882 5881 5880 5879 5879 5878 5877 5876 5876 5876 5875 5876 5876 5877 5877 5878 5878 5878 5879 5880 5881 5883 5886 5888 5890 5891 5893 5894 5895
5913 5913 5911 5911 5910 5909 5907 5906 5905 5903 5901 5899 5897 5895 5893 5891 5889 5887 5886 5884 5883 5882 5881 5880 5879 5878 5877 5876 5876 5875 5874 5875 5876 5877 5877 5877 5878 5879 5879 5880 5881 5883 5885 5887 5889 5891 5892 5893 5894
5914 5914 5913 5913 5912 5911 5909 5908 5906 5904 5903 5901 5899 5896 5894 5892 5891 5889 5887 5886 5884 5883 5882 5881 5880 5879 5878 5877 5876 5876 5875 5875 5876 5876 5877 5877 5878 5879 5879 5880 5881 5883 5885 5887 5889 5890 5891 5892 5894
5915 5915 5914 5914 5913 5912 5912 5910 5908 5906 5904 5902 5900 5897 5895 5893 5892 5890 5888 5887 5886 5884 5883 5882 5881 5880 5879 5878 5877 5877 5876 5876 5876 5877 5878 5878 5878 5879 5880 5880 5882 5883 5885 5887 5888 5890 5891 5893 5894
5916 5915 5915 5915 5914 5914 5913 5912 5909 5907 5905 5903 5901 5899 5897 5895 5893 5891 5890 5888 5887 5885 5884 5883 5882 5880 5879 5878 5878 5877 5877 5877 5877 5878 5878 5879 5879 5880 5881 5882 5882 5883 5884 5886 5888 5889 5891 5892 5893
5916 5917 5917 5916 5915 5914 5914 5912 5911 5908 5907 5904 5902 5901 5899 5896 5894 5892 5890 5889 5888 5887 5885 5884 5883 5882 5881 5880 5879 5879 5878 5878 5878 5878 5879 5879 5880 5881 5882 5883 5883 5884 5884 5885 5887 5889 5891 5892 5893
5918 5917 5917 5916 5916 5915 5915 5914 5913 5910 5907 5906 5904 5902 5900 5898 5896 5894 5892 5890 5889 5888 5886 5885 5884 5883 5882 5881 5881 5880 5879 5879 5879 5879 5880 5881 5881 5882 5883 5884 5884 5885 5885 5886 5887 5889 5891 5892 5893
5917 5918 5917 5917 5916 5916 5916 5915 5914 5911 5909 5907 5906 5904 5902 5899 5897 5896 5894 5892 5890 5889 5888 5887 5886 5885 5883 5883 5882 5882 5881 5880 5880 5880 5881 5882 5882 5883 5884 5885 5886 5886 5887 5888 5888 5890 5891 5892 5893
5917 5918 5917 5917 5916 5916 5917 5916 5914 5912 5910 5908 5907 5905 5903 5901 5899 5897 5895 5893 5891 5890 5889 5888 5887 5886 5885 5884 5884 5883 5882 5882 5881 5881 5882 5883 5884 5884 5885 5886 5887 5887 5888 5889 5889 5890 5891 5892 5892
5917 5917 5917 5917 5916 5916 5916 5915 5914 5913 5911 5910 5908 5907 5905 5903 5900 5898 5896 5894 5893 5891 5890 5889 5888 5887 5886 5886 5885 5885 5884 5883 5883 5883 5883 5884 5885 5886 5886 5887 5887 5888 5888 5889 5890 5891 5891 5891 5892
5916 5916 5916 5916 5915 5916 5915 5914 5914 5912 5912 5911 5909 5908 5906 5904 5902 5900 5898 5896 5894 5893 5892 5891 5890 5889 5888 5887 5887 5887 5886 5886 5885 5886 5886 5886 5886 5887 5888 5888 5888 5889 5889 5890 5890 5891 5891 5891 5892
5915 5915 5915 5915 5915 5915 5914 5914 5913 5912 5912 5911 5910 5908 5906 5905 5903 5901 5899 5897 5896 5895 5894 5892 5891 5890 5889 5889 5889 5889 5888 5888 5888 5888 5888 5888 5888 5888 5889 5889 5889 5890 5890 5890 5890 5891 5891 5891 5891
5913 5914 5914 5914 5914 5914 5913 5913 5912 5912 5911 5911 5910 5909 5907 5905 5904 5902 5900 5898 5897 5895 5895 5894 5893 5892 5891 5890 5890 5890 5890 5890 5890 5889 5889 5889 5889 5889 5889 5890 5890 5890 5890 5890 5890 5890 5890 5890 5890
5911 5912 5913 5912 5912 5912 5912 5912 5912 5912 5911 5910 5909 5908 5907 5906 5904 5902 5900 5899 5897 5896 5895 5895 5894 5893 5892 5892 5891 5891 5891 5891 5891 5891 5890 5890 5890 5890 5890 5890 5890 5890 5890 5890 5890 5890 5890 5889 5889
5909 5910 5911 5911 5910 5911 5911 5911 5911 5910 5910 5909 5908 5906 5906 5905 5904 5902 5900 5899 5897 5896 5896 5895 5895 5894 5893 5893 5892 5892 5892 5892 5892 5891 5891 5891 5891 5891 5891 5890 5890 5890 5890 5890 5889 5889 5889 5888 5888
5907 5908 5908 5909 5908 5908 5908 5908 5909 5908 5908 5908 5907 5906 5904 5904 5903 5902 5900 5899 5898 5897 5896 5895 5895 5894 5894 5893 5893 5892 5892 5892 5892 5892 5891 5891 5891 5891 5890 5890 5890 5889 5889 5889 5888 5888 5888 5887 5887
5904 5905 5905 5906 5905 5906 5906 5906 5906 5906 5906 5906 5905 5905 5903 5903 5902 5900 5900 5898 5897 5897 5896 5895 5895 5895 5894 5894 5893 5893 5893 5892 5892 5892 5891 5891 5891 5890 5890 5890 5889 5889 5888 5888 5887 5887 5886 5886 5886
5900 5902 5902 5902 5902 5903 5904 5903 5904 5903 5904 5903 5903 5903 5902 5901 5900 5899 5899 5898 5897 5896 5896 5895 5895 5894 5894 5894 5894 5893 5893 5892 5892 5892 5891 5891 5890 5890 5889 5889 5888 5888 5887 5886 5886 5886 5885 5884 5884
5897 5898 5900 5900 5899 5900 5900 5900 5902 5900 5900 5900 5900 5900 5900 5899 5899 5898 5897 5897 5896 5896 5895 5894 5894 5893 5893 5893 5893 5893 5892 5892 5891 5891 5890 5890 5889 5888 5888 5887 5887 5886 5886 5885 5884 5884 5883 5883 5882
5893 5894 5896 5896 5896 5896 5896 5897 5898 5897 5897 5897 5898 5898 5897 5897 5896 5895 5895 5895 5895 5894 5893 5893 5892 5892 5892 5892 5892 5892 5891 5891 5891 5890 5889 5888 5888 5887 5886 5886 5885 5884 5884 5883 5882 5882 5881 5880 5880
5889 5890 5892 5892 5892 5892 5893 5893 5894 5894 5894 5894 5894 5894 5894 5895 5894 5893 5892 5892 5892 5892 5892 5892 5891 5890 5890 5890 5890 5890 5890 5889 5889 5888 5888 5887 5886 5885 5885 5884 5883 5882 5881 5880 5880 5879 5878 5878 5877
5884 5885 5886 5887 5888 5888 5888 5891 5891 5891 5891 5890 5890 5890 5891 5892 5892 5891 5891 5891 5890 5890 5889 5889 5889 5888 5888 5888 5888 5887 5887 5887 5886 5886 5885 5885 5884 5883 5882 5882 5880 5879 5878 5877 5876 5876 5875 5875 5874
5878 5880 5881 5883 5884 5884 5884 5888 5886 5887 5887 5887 5887 5887 5887 5888 5888 5888 5887 5887 5887 5887 5887 5886 5885 5886 5886 5886 5885 5885 5884 5883 5883 5882 5882 5881 5881 5880 5879 5878 5877 5876 5875 5874 5873 5872 5871 5871 5870